Location: Vancouver
(49.2500°N, 123.1330°W)
Time: 04:14:36
(UTC-08:00)

Oscar 11 - Visible Passes

Search period start: 23 February 2018 00:00
Search period end: 05 March 2018 00:00
Orbit: 613 x 627 km, 97.7° (Epoch: 22 February)

Date Brightness Start Highest point End Pass type
(mag) Time Alt. Az. Time Alt. Az. Time Alt. Az.
23 Feb 7.6 19:01:11 10° SE 19:05:08 37° ENE 19:09:07 10° N visible
23 Feb 9.1 20:38:16 13° SSW 20:41:22 26° W 20:45:00 10° NW visible
24 Feb 7.1 19:18:20 11° SSE 19:22:17 54° ENE 19:26:30 10° N visible
24 Feb 9.7 20:55:48 10° SW 20:58:46 18° W 21:01:44 10° NW visible
25 Feb 6.9 19:35:33 12° SSE 19:39:29 80° ENE 19:43:49 10° NNW visible
25 Feb 10.0 21:14:25 10° WSW 21:16:12 12° W 21:17:59 10° WNW visible
26 Feb 8.7 18:18:28 10° E 18:21:06 16° ENE 18:23:43 10° NNE visible
26 Feb 7.3 19:52:46 12° S 19:56:44 69° WSW 20:01:02 10° NNW visible
27 Feb 8.3 18:34:50 10° ESE 18:38:08 22° ENE 18:41:27 10° NNE visible
27 Feb 8.0 20:09:59 11° S 20:14:00 46° W 20:18:10 10° NNW visible
28 Feb 7.8 18:51:27 10° SE 18:55:13 31° ENE 18:59:01 10° N visible
28 Feb 8.8 20:27:29 10° SSW 20:31:20 31° W 20:35:12 10° NNW visible
01 Mar 7.4 19:08:17 10° SE 19:12:21 44° ENE 19:16:27 10° N visible
01 Mar 9.4 20:45:21 10° SW 20:48:42 22° W 20:52:04 10° NW visible
02 Mar 7.0 19:25:17 10° SSE 19:29:32 65° ENE 19:33:48 10° N visible
02 Mar 9.9 21:03:36 10° SW 21:06:06 15° W 21:08:38 10° NW visible
03 Mar 7.0 19:42:26 10° SSE 19:46:45 86° W 19:51:05 10° NNW visible
03 Mar 10.3 21:23:14 10° W 21:23:34 10° W 21:23:54 10° W visible
04 Mar 7.6 19:59:46 10° S 20:04:00 58° W 20:08:16 10° NNW visible
